When you browse on this site, cookies collect data to enhance your experience and personalize the content and advertising you see.
Visit our Privacy Policy to learn more. By continuing to use the site, you agree to this use of cookies and data.

Stündliche Wetter Malin

Heute, 27 September, Sonntag

Zeit Temperatur Niederschläge Wind Luftdruck Luftfeuchtigkeit
00:00 +20°C° 0 mm 6 m/S 739 mmHg 54%
01:00 +20°C° 0 mm 6 m/S 739 mmHg 55%
02:00 +20°C° 0 mm 6 m/S 740 mmHg 56%
03:00 +19°C° 0 mm 6 m/S 739 mmHg 55%
04:00 +19°C° 0 mm 6 m/S 739 mmHg 54%
05:00 +18°C° 0 mm 7 m/S 739 mmHg 53%
06:00 +17°C° 0.3 mm 6 m/S 739 mmHg 59%
07:00 +17°C° 0.3 mm 6 m/S 739 mmHg 65%
08:00 +17°C° 0 mm 6 m/S 740 mmHg 67%
09:00 +17°C° 1.1 mm 6 m/S 740 mmHg 73%
10:00 +17°C° 1.1 mm 6 m/S 740 mmHg 79%
11:00 +17°C° 1.1 mm 6 m/S 740 mmHg 85%
12:00 +19°C° 3.2 mm 6 m/S 740 mmHg 86%
13:00 +19°C° 3.2 mm 6 m/S 740 mmHg 86%
14:00 +19°C° 3.2 mm 6 m/S 740 mmHg 87%
15:00 +19°C° 0.4 mm 5 m/S 741 mmHg 83%
16:00 +19°C° 0.4 mm 5 m/S 742 mmHg 80%
17:00 +19°C° 0.4 mm 5 m/S 742 mmHg 76%
18:00 +16°C° 0 mm 5 m/S 743 mmHg 80%
19:00 +14°C° 0 mm 5 m/S 744 mmHg 84%
20:00 +12°C° 0 mm 5 m/S 744 mmHg 89%
21:00 +12°C° 0 mm 5 m/S 745 mmHg 89%
22:00 +11°C° 0 mm 4 m/S 746 mmHg 90%
23:00 +10°C° 0 mm 4 m/S 747 mmHg 90%

Morgen, 28 September, Montag

Zeit Temperatur Niederschläge Wind Luftdruck Luftfeuchtigkeit
00:00 +10°C° 0 mm 4 m/S 747 mmHg 90%
01:00 +10°C° 0 mm 3 m/S 748 mmHg 90%
02:00 +10°C° 0 mm 3 m/S 749 mmHg 91%
03:00 +9°C° 0 mm 3 m/S 749 mmHg 91%
04:00 +9°C° 0 mm 2 m/S 750 mmHg 91%
05:00 +9°C° 0 mm 2 m/S 750 mmHg 92%
06:00 +9°C° 0 mm 2 m/S 750 mmHg 88%
07:00 +10°C° 0 mm 2 m/S 750 mmHg 84%
08:00 +12°C° 0 mm 2 m/S 751 mmHg 80%
09:00 +14°C° 0 mm 2 m/S 751 mmHg 72%
10:00 +16°C° 0 mm 2 m/S 751 mmHg 63%
11:00 +17°C° 0 mm 3 m/S 752 mmHg 55%
12:00 +18°C° 0 mm 2 m/S 751 mmHg 51%
13:00 +19°C° 0 mm 2 m/S 751 mmHg 47%
14:00 +20°C° 0 mm 2 m/S 751 mmHg 44%
15:00 +19°C° 0 mm 2 m/S 751 mmHg 48%
16:00 +18°C° 0 mm 2 m/S 751 mmHg 52%
17:00 +17°C° 0 mm 2 m/S 750 mmHg 56%
18:00 +17°C° 0 mm 2 m/S 750 mmHg 58%
19:00 +16°C° 0 mm 3 m/S 750 mmHg 59%
20:00 +14°C° 0 mm 3 m/S 750 mmHg 60%
21:00 +14°C° 0 mm 3 m/S 750 mmHg 60%
22:00 +14°C° 0 mm 3 m/S 750 mmHg 60%
23:00 +13°C° 0 mm 3 m/S 750 mmHg 60%

übermorgen, 29 September, Dienstag

Zeit Temperatur Niederschläge Wind Luftdruck Luftfeuchtigkeit
00:00 +13°C° 0 mm 3 m/S 750 mmHg 61%
01:00 +13°C° 0 mm 3 m/S 749 mmHg 62%
02:00 +12°C° 0 mm 3 m/S 749 mmHg 63%
03:00 +12°C° 0 mm 3 m/S 749 mmHg 65%
04:00 +11°C° 0 mm 3 m/S 749 mmHg 67%
05:00 +11°C° 0 mm 3 m/S 748 mmHg 69%
06:00 +12°C° 0 mm 3 m/S 748 mmHg 68%
07:00 +13°C° 0 mm 3 m/S 748 mmHg 67%
08:00 +14°C° 0 mm 3 m/S 748 mmHg 65%
09:00 +16°C° 0 mm 3 m/S 747 mmHg 62%
10:00 +18°C° 0 mm 3 m/S 747 mmHg 58%
11:00 +20°C° 0 mm 3 m/S 747 mmHg 54%
12:00 +20°C° 0 mm 3 m/S 746 mmHg 52%
13:00 +21°C° 0 mm 3 m/S 746 mmHg 51%
14:00 +22°C° 0 mm 4 m/S 746 mmHg 50%
15:00 +21°C° 0 mm 3 m/S 745 mmHg 54%
16:00 +20°C° 0 mm 3 m/S 745 mmHg 59%
17:00 +19°C° 0 mm 3 m/S 744 mmHg 63%
18:00 +19°C° 0 mm 3 m/S 744 mmHg 63%
19:00 +19°C° 0 mm 4 m/S 744 mmHg 63%
20:00 +18°C° 0 mm 4 m/S 743 mmHg 63%
21:00 +18°C° 0 mm 4 m/S 743 mmHg 63%
22:00 +18°C° 0 mm 4 m/S 743 mmHg 64%
23:00 +17°C° 0 mm 5 m/S 742 mmHg 64%

30 September, Mittwoch

Zeit Temperatur Niederschläge Wind Luftdruck Luftfeuchtigkeit
00:00 +16°C° 0 mm 5 m/S 742 mmHg 66%
01:00 +16°C° 0 mm 5 m/S 741 mmHg 68%
02:00 +15°C° 0 mm 5 m/S 741 mmHg 70%
03:00 +15°C° 0.2 mm 5 m/S 741 mmHg 70%
04:00 +14°C° 0.2 mm 5 m/S 740 mmHg 71%
05:00 +14°C° 0.2 mm 6 m/S 740 mmHg 71%
06:00 +14°C° 0.3 mm 6 m/S 740 mmHg 73%
07:00 +13°C° 0.3 mm 6 m/S 740 mmHg 75%
08:00 +13°C° 0.3 mm 6 m/S 740 mmHg 77%
09:00 +13°C° 0.8 mm 6 m/S 740 mmHg 81%
10:00 +13°C° 0.8 mm 6 m/S 740 mmHg 85%
11:00 +13°C° 0.8 mm 6 m/S 740 mmHg 89%
12:00 +12°C° 0.1 mm 7 m/S 740 mmHg 87%
13:00 +14°C° 0.1 mm 7 m/S 740 mmHg 86%
14:00 +14°C° 0.1 mm 7 m/S 740 mmHg 85%
15:00 +14°C° 0.5 mm 7 m/S 740 mmHg 84%
16:00 +13°C° 0.5 mm 6 m/S 740 mmHg 84%
17:00 +13°C° 0.5 mm 6 m/S 740 mmHg 83%
18:00 +13°C° 0.1 mm 5 m/S 740 mmHg 84%
19:00 +13°C° 0.1 mm 5 m/S 741 mmHg 85%
20:00 +13°C° 0.1 mm 5 m/S 741 mmHg 86%
21:00 +13°C° 0 mm 5 m/S 741 mmHg 87%
22:00 +13°C° 0 mm 5 m/S 741 mmHg 88%
23:00 +13°C° 0 mm 5 m/S 741 mmHg 89%

1 Oktober, Donnerstag

Zeit Temperatur Niederschläge Wind Luftdruck Luftfeuchtigkeit
00:00 +13°C° 0.2 mm 5 m/S 741 mmHg 90%
01:00 +13°C° 0.2 mm 5 m/S 741 mmHg 91%
02:00 +13°C° 0.2 mm 5 m/S 741 mmHg 93%
03:00 +13°C° 0.2 mm 5 m/S 741 mmHg 92%
04:00 +13°C° 0.2 mm 4 m/S 741 mmHg 91%
05:00 +12°C° 0.2 mm 4 m/S 741 mmHg 91%
06:00 +12°C° 0.2 mm 4 m/S 741 mmHg 91%
07:00 +12°C° 0.2 mm 4 m/S 741 mmHg 91%
08:00 +13°C° 0.2 mm 4 m/S 741 mmHg 91%
09:00 +13°C° 0.1 mm 4 m/S 742 mmHg 88%
10:00 +14°C° 0.1 mm 4 m/S 742 mmHg 85%
11:00 +15°C° 0.1 mm 4 m/S 742 mmHg 82%
12:00 +15°C° 0.1 mm 4 m/S 742 mmHg 78%
13:00 +17°C° 0.1 mm 4 m/S 742 mmHg 75%
14:00 +18°C° 0.1 mm 4 m/S 742 mmHg 72%
15:00 +17°C° 0.2 mm 4 m/S 742 mmHg 75%
16:00 +17°C° 0.2 mm 3 m/S 742 mmHg 78%
17:00 +16°C° 0.2 mm 3 m/S 742 mmHg 81%
18:00 +14°C° 0 mm 3 m/S 742 mmHg 85%
19:00 +13°C° 0 mm 3 m/S 743 mmHg 89%
20:00 +13°C° 0 mm 3 m/S 743 mmHg 93%
21:00 +12°C° 0 mm 3 m/S 743 mmHg 92%
22:00 +12°C° 0 mm 3 m/S 743 mmHg 91%
23:00 +12°C° 0 mm 4 m/S 743 mmHg 89%

2 Oktober, Freitag

Zeit Temperatur Niederschläge Wind Luftdruck Luftfeuchtigkeit
00:00 +12°C° 0.1 mm 4 m/S 743 mmHg 89%
01:00 +12°C° 0.1 mm 4 m/S 742 mmHg 88%
02:00 +12°C° 0.1 mm 4 m/S 742 mmHg 87%
03:00 +12°C° 0.3 mm 4 m/S 742 mmHg 88%
04:00 +12°C° 0.3 mm 4 m/S 742 mmHg 90%
05:00 +12°C° 0.3 mm 4 m/S 742 mmHg 91%
06:00 +12°C° 0.1 mm 4 m/S 743 mmHg 90%
07:00 +13°C° 0.1 mm 4 m/S 743 mmHg 90%
08:00 +13°C° 0.1 mm 5 m/S 743 mmHg 89%
09:00 +14°C° 0 mm 5 m/S 743 mmHg 84%
10:00 +15°C° 0 mm 5 m/S 743 mmHg 79%
11:00 +16°C° 0 mm 5 m/S 744 mmHg 75%
12:00 +17°C° 0.1 mm 5 m/S 744 mmHg 72%
13:00 +17°C° 0.1 mm 5 m/S 744 mmHg 70%
14:00 +17°C° 0.1 mm 5 m/S 744 mmHg 68%
15:00 +17°C° 0.2 mm 5 m/S 744 mmHg 71%
16:00 +17°C° 0.2 mm 4 m/S 745 mmHg 73%
17:00 +15°C° 0.2 mm 4 m/S 745 mmHg 76%
18:00 +14°C° 0 mm 4 m/S 745 mmHg 77%
19:00 +13°C° 0 mm 4 m/S 746 mmHg 79%
20:00 +13°C° 0 mm 4 m/S 746 mmHg 80%
21:00 +12°C° 0 mm 4 m/S 746 mmHg 83%
22:00 +11°C° 0 mm 3 m/S 746 mmHg 86%
23:00 +11°C° 0 mm 3 m/S 746 mmHg 89%
Mehr zeigen